Weather in Rabac

Croatia     45°04′37″N   14°09′47″E
temp.,
°C
wind,
m/s
gust,
m/s
humid.,
%
clouds,
%
prec.,
mm/h
press.,
hPa
HPBL,
m
7 march, sun
sun701:00+5ne56500 0.0 1030611
04:00+5nne44480 0.0 1028504
07:00+4nne33510 0.0 1028415
10:00+5ne32470 0.0 1027350
13:00+6ese11380 0.0 1024263
16:00+7ssw22453 0.0 1022344
19:00+7ssw015415 0.0 1021338
22:00+7nne11564 0.0 1021388
8 march, mon
mon801:00+6ne22592 0.0 1020333
04:00+6nne32610 0.0 1018286
07:00+6nne22620 0.0 1018323
10:00+7ne22580 0.0 1018319
13:00+8ene11560 0.0 1018214
16:00+9ne11500 0.0 1017132
19:00+9n22520 0.0 1018128
22:00+9ne675932 0.0 1019450
9 march, tue
tue901:00+8ne796266 0.0 1018529
04:00+8ne7963100 0.0 1017515
07:00+8ne7961100 0.0 1017493
10:00+8ne7858100 0.0 1017572
13:00+10ne455197 0.0 1016582
16:00+10ne345378 0.0 1015441
19:00+9ne795871 0.0 1016747
22:00+9nne9115990 0.0 1017915
10 march, wed
wed1001:00+9nne8105995 0.0 1017760
04:00+8nne795835 0.0 1017659
07:00+8nne675918 0.0 1019475
10:00+9nne56510 0.0 1020519
13:00+10nw02390 0.0 1020243
16:00+12wsw56544 0.0 1020343
19:00+10w44602 0.0 1022190
22:00+10nnw23610 0.0 1024174
11 march, thu
thu1101:00+9n22620 0.0 1024155
04:00+9ne22610 0.0 1024168
07:00+8ne22612 0.0 1024167
10:00+10se13636 0.0 1024443
13:00+11ssw786451 0.0 1023772
16:00+11ssw5666100 0.0 1022484
19:00+11ssw5672100 0.0 1021350
22:00+12ssw81276100 0.1 1021356